User: anonymous   Login
Location: New Town
(33.2710°N, 90.7534°W)
Time: 01:33:11
(UTC+00:00)
Language:

S-56A Canister/Altair - Orbit

View from above orbital plane
View from above orbital plane
View from above satellite
View from above satellite

Ground track
Ground track

The orbit data is extracted from the following two-line orbital elements,

1 00082U 61004B   21131.16857655 -.00000116  00000-0 -68205-4 0  9997
2 00082  38.8631  64.8860 1176465 225.2788 124.6029 12.26038073848036
Epoch (UTC): 11 May 2021 04:02:45
Eccentricity: 0.1176465
inclination: 38.8631°
perigee height: 632 km
apogee height: 2501 km
right ascension of ascending node: 64.8860°
argument of perigee: 225.2788°
revolutions per day: 12.26038073
mean anomaly at epoch: 124.6029°
orbit number at epoch: 84803

The dashed part of the orbit path shows where the satellite is in the earth's shadow,  

DLR